QPF
0.00 0.00 0.00 0.00 0.01 0.01 0.00 0.00 0.00 0.00 0.01 0.01 0.01 0.00 0.00 0.00 0.00 0.00 0.00 0.00 0.00 0.00 0.00 0.00 0.00 0.00 0.00 0.00 0.00 0.00 0.00 0.00 0.00 0.00 0.00 0.00 0.00 0.00 0.00 0.00 0.00 0.00 0.00
0.00 0.00 0.00 0.00 0.01 0.00 0.00 0.00 0.00 0.00 0.00 0.00 0.00 0.00 0.00 0.00 0.00 0.00 0.00 0.00 0.00 0.00 0.00 0.00 0.00 0.00 0.00 0.00 0.00 0.00 0.00 0.00 0.00 0.00 0.00 0.00 0.01 0.02 0.01 0.01 0.01 0.00 0.00
0.00 0.00 0.00 0.00 0.00 0.00 0.00 0.00 0.00 0.00 0.00 0.00 0.00 0.00 0.00 0.00 0.00 0.00 0.00 0.00 0.00 0.00 0.00 0.00 0.00 0.00 0.00 0.00 0.00 0.00 0.00 0.00 0.00 0.00 0.00 0.00 0.01 0.01 0.00 0.00 0.00 0.00 0.01
0.00 0.00 0.00 0.00 0.00 0.00 0.00 0.00 0.00 0.00 0.00 0.00 0.00 0.00 0.00 0.00 0.00 0.00 0.00 0.00 0.00 0.00 0.00 0.00 0.00 0.00 0.00 0.00 0.00 0.00 0.00 0.00 0.00 0.00 0.00 0.00 0.00 0.00 0.00 0.00 0.00 0.00 0.00
0.00 0.00 0.00 0.00 0.00 0.00 0.00 0.00 0.00 0.00 0.00 0.00 0.00 0.00 0.00 0.00 0.00 0.00 0.00 0.00 0.00 0.00 0.00 0.00 0.00 0.00 0.00 0.00 0.00 0.00 0.00 0.00 0.00 0.00 0.00 0.00 0.00 0.00 0.00 0.00 0.00 0.00 0.00
0.00 0.00 0.00 0.00 0.01 0.01 0.00 0.00 0.00 0.00 0.00 0.00 0.00 0.00 0.00 0.00 0.00 0.00 0.00 0.00 0.00 0.00 0.00 0.00 0.00 0.00 0.00 0.00 0.00 0.00 0.00 0.00 0.00 0.00 0.00 0.00 0.00 0.00 0.00 0.00 0.00 0.00 0.00
0.00 0.00 0.00 0.01 0.01 0.00 0.00 0.00 0.00 0.00 0.00 0.00 0.00 0.00 0.00 0.00 0.00 0.00 0.00 0.00 0.00 0.00 0.00 0.00 0.00 0.00 0.00 0.00 0.00 0.00 0.00 0.00 0.00 0.00 0.00 0.00 0.00 0.00 0.01 0.01 0.00 0.01 0.01
0.00 0.00 0.00 0.02 0.00 0.00 0.00 0.00 0.00 0.00 0.00 0.00 0.00 0.00 0.00 0.00 0.00 0.00 0.00 0.00 0.00 0.00 0.00 0.00 0.00 0.00 0.00 0.00 0.00 0.00 0.00 0.00 0.00 0.00 0.00 0.00 0.00 0.01 0.01 0.00 0.00 0.00 0.01
0.00 0.00 0.01 0.01 0.00 0.00 0.00 0.00 0.00 0.00 0.00 0.00 0.00 0.00 0.00 0.00 0.00 0.00 0.00 0.00 0.00 0.00 0.00 0.00 0.00 0.00 0.00 0.00 0.00 0.00 0.00 0.00 0.00 0.00 0.00 0.00 0.00 0.00 0.00 0.00 0.00 0.00 0.00
0.00 0.01 0.01 0.00 0.00 0.00 0.00 0.00 0.00 0.00 0.00 0.00 0.00 0.00 0.00 0.00 0.00 0.00 0.00 0.00 0.00 0.00 0.00 0.00 0.00 0.00 0.00 0.00 0.00 0.00 0.00 0.00 0.00 0.00 0.00 0.00 0.00 0.00 0.00 0.00 0.00 0.01 0.01
0.01 0.01 0.00 0.00 0.00 0.00 0.00 0.00 0.00 0.00 0.00 0.00 0.00 0.00 0.00 0.00 0.00 0.00 0.00 0.00 0.00 0.00 0.00 0.00 0.00 0.00 0.00 0.00 0.00 0.00 0.00 0.00 0.00 0.00 0.00 0.00 0.00 0.00 0.00 0.00 0.00 0.00 0.00
0.02 0.01 0.00 0.00 0.00 0.00 0.00 0.00 0.00 0.00 0.00 0.00 0.00 0.00 0.00 0.00 0.00 0.00 0.00 0.00 0.00 0.00 0.00 0.00 0.00 0.00 0.00 0.00 0.00 0.00 0.00 0.00 0.00 0.00 0.00 0.00 0.00 0.01 0.00 0.00 0.00 0.00 0.00
0.01 0.01 0.00 0.00 0.00 0.00 0.00 0.00 0.00 0.00 0.00 0.00 0.00 0.00 0.00 0.00 0.00 0.00 0.00 0.00 0.00 0.00 0.00 0.00 0.00 0.00 0.00 0.00 0.00 0.00 0.00 0.00 0.00 0.00 0.00 0.00 0.00 0.00 0.00 0.00 0.00 0.00 0.00
0.01 0.00 0.00 0.00 0.00 0.00 0.00 0.00 0.00 0.00 0.00 0.00 0.00 0.00 0.00 0.00 0.00 0.00 0.00 0.00 0.00 0.00 0.00 0.00 0.00 0.00 0.00 0.00 0.00 0.00 0.00 0.00 0.00 0.00 0.00 0.00 0.00 0.00 0.00 0.00 0.00 0.00 0.00
0.00 0.00 0.00 0.00 0.00 0.00 0.00 0.00 0.00 0.00 0.00 0.00 0.00 0.00 0.00 0.00 0.00 0.00 0.00 0.00 0.00 0.00 0.00 0.00 0.00 0.00 0.00 0.00 0.00 0.00 0.00 0.00 0.00 0.00 0.00 0.00 0.00 0.00 0.00 0.00 0.00 0.00 0.00
0.00 0.00 0.00 0.00 0.00 0.00 0.00 0.00 0.00 0.00 0.00 0.00 0.00 0.00 0.00 0.00 0.00 0.00 0.00 0.00 0.00 0.00 0.00 0.00 0.00 0.00 0.00 0.00 0.00 0.00 0.00 0.00 0.00 0.00 0.00 0.00 0.00 0.00 0.00 0.00 0.00 0.00 0.00
0.00 0.00 0.00 0.00 0.00 0.00 0.00 0.00 0.00 0.00 0.00 0.00 0.00 0.00 0.00 0.00 0.00 0.00 0.00 0.00 0.00 0.00 0.00 0.00 0.00 0.00 0.00 0.00 0.00 0.00 0.00 0.00 0.00 0.00 0.00 0.00 0.00 0.00 0.00 0.00 0.00 0.00 0.00
0.00 0.00 0.00 0.00 0.00 0.00 0.00 0.00 0.00 0.00 0.00 0.00 0.00 0.00 0.00 0.00 0.00 0.00 0.00 0.00 0.00 0.00 0.00 0.00 0.00 0.00 0.00 0.00 0.00 0.00 0.00 0.00 0.00 0.00 0.00 0.00 0.00 0.00 0.00 0.00 0.00 0.00 0.00
0.00 0.00 0.00 0.00 0.00 0.00 0.00 0.00 0.00 0.00 0.00 0.00 0.00 0.00 0.00 0.00 0.00 0.00 0.00 0.00 0.00 0.00 0.00 0.00 0.00 0.00 0.00 0.00 0.00 0.00 0.00 0.00 0.00 0.00 0.00 0.00 0.00 0.00 0.00 0.00 0.00 0.00 0.00
0.02 0.00 0.00 0.00 0.00 0.00 0.00 0.00 0.00 0.00 0.00 0.00 0.00 0.00 0.00 0.00 0.00 0.00 0.00 0.00 0.00 0.00 0.00 0.00 0.00 0.00 0.00 0.00 0.00 0.00 0.00 0.00 0.00 0.00 0.00 0.00 0.00 0.00 0.00 0.00 0.00 0.00 0.00
0.02 0.00 0.01 0.00 0.00 0.00 0.00 0.00 0.00 0.00 0.00 0.00 0.00 0.00 0.00 0.00 0.00 0.00 0.00 0.00 0.00 0.00 0.00 0.00 0.00 0.00 0.00 0.00 0.00 0.00 0.00 0.00 0.00 0.00 0.00 0.00 0.00 0.00 0.00 0.00 0.00 0.00 0.00
0.10 0.06 0.03 0.03 0.03 0.02 0.01 0.00 0.00 0.00 0.00 0.00 0.00 0.00 0.00 0.00 0.00 0.00 0.00 0.00 0.00 0.00 0.00 0.00 0.00 0.00 0.00 0.00 0.00 0.00 0.00 0.00 0.00 0.00 0.00 0.00 0.00 0.00 0.00 0.00 0.00 0.00 0.00
0.08 0.07 0.07 0.04 0.03 0.02 0.01 0.00 0.00 0.00 0.00 0.00 0.00 0.00 0.00 0.00 0.00 0.00 0.00 0.00 0.00 0.00 0.00 0.00 0.00 0.00 0.00 0.00 0.00 0.00 0.00 0.00 0.00 0.00 0.00 0.00 0.00 0.00 0.00 0.00 0.00 0.00 0.00
0.04 0.05 0.07 0.04 0.02 0.02 0.01 0.01 0.00 0.00 0.00 0.00 0.00 0.00 0.00 0.00 0.00 0.00 0.00 0.00 0.00 0.00 0.00 0.00 0.00 0.00 0.00 0.00 0.00 0.00 0.00 0.00 0.00 0.00 0.00 0.00 0.00 0.00 0.00 0.00 0.00 0.00 0.00
0.00 0.03 0.04 0.03 0.03 0.03 0.02 0.01 0.00 0.00 0.00 0.00 0.00 0.00 0.00 0.00 0.00 0.00 0.00 0.00 0.00 0.00 0.00 0.00 0.00 0.00 0.00 0.00 0.00 0.00 0.00 0.00 0.00 0.00 0.00 0.00 0.00 0.00 0.00 0.00 0.00 0.00 0.00
0.00 0.01 0.01 0.03 0.05 0.04 0.02 0.01 0.00 0.00 0.00 0.00 0.00 0.00 0.00 0.00 0.00 0.00 0.00 0.00 0.00 0.00 0.00 0.00 0.00 0.00 0.00 0.00 0.00 0.00 0.00 0.00 0.00 0.00 0.00 0.00 0.00 0.00 0.00 0.00 0.00 0.00 0.00
MSLP
1012.84 1013.21 1013.81 1014.12 1014.42 1014.71 1014.99 1015.22 1015.44 1015.55 1015.61 1015.70 1015.84 1016.05 1016.23 1016.35 1016.45 1016.55 1016.61 1016.57 1016.54 1016.49 1016.45 1016.46 1016.48 1016.49 1016.47 1016.41 1016.37 1016.33 1016.27 1016.25 1016.21 1016.14 1016.00 1015.83 1015.68 1015.63 1015.53 1015.49 1015.49 1015.41 1015.24
1012.41 1013.27 1013.84 1014.19 1014.53 1014.88 1015.15 1015.43 1015.62 1015.82 1015.95 1016.06 1016.22 1016.38 1016.48 1016.60 1016.69 1016.78 1016.83 1016.81 1016.77 1016.72 1016.66 1016.63 1016.65 1016.67 1016.67 1016.62 1016.51 1016.47 1016.45 1016.44 1016.36 1016.20 1015.98 1015.73 1015.61 1015.45 1015.42 1015.52 1015.55 1015.44 1015.22
1012.41 1013.25 1013.87 1014.30 1014.71 1015.07 1015.36 1015.64 1015.86 1016.07 1016.25 1016.43 1016.53 1016.64 1016.72 1016.81 1016.95 1017.03 1017.08 1017.06 1017.04 1017.01 1016.91 1016.87 1016.89 1016.92 1016.90 1016.82 1016.68 1016.56 1016.54 1016.52 1016.40 1016.19 1015.95 1015.72 1015.51 1015.67 1015.74 1015.62 1015.54 1015.36 1015.13
1012.48 1013.26 1013.92 1014.44 1014.84 1015.23 1015.49 1015.84 1016.13 1016.36 1016.50 1016.66 1016.81 1016.92 1017.02 1017.12 1017.23 1017.31 1017.32 1017.31 1017.32 1017.31 1017.29 1017.20 1017.18 1017.14 1017.11 1017.03 1016.91 1016.77 1016.68 1016.57 1016.41 1016.23 1016.04 1015.79 1015.73 1015.86 1015.78 1015.60 1015.41 1015.17 1015.04
1012.44 1013.20 1014.07 1014.54 1014.95 1015.34 1015.73 1016.11 1016.33 1016.56 1016.72 1016.89 1017.03 1017.18 1017.30 1017.40 1017.49 1017.54 1017.58 1017.61 1017.62 1017.62 1017.57 1017.54 1017.52 1017.43 1017.33 1017.27 1017.11 1016.97 1016.85 1016.66 1016.39 1016.24 1016.03 1016.05 1016.28 1016.07 1015.90 1015.65 1015.43 1015.19 1015.04
1012.37 1013.42 1014.28 1014.71 1015.10 1015.56 1016.04 1016.32 1016.58 1016.80 1016.94 1017.13 1017.29 1017.41 1017.53 1017.61 1017.73 1017.82 1017.88 1017.90 1017.91 1017.88 1017.85 1017.84 1017.84 1017.76 1017.64 1017.54 1017.40 1017.24 1017.06 1016.84 1016.52 1016.41 1016.30 1016.46 1016.49 1016.18 1015.87 1015.76 1015.61 1015.25 1015.03
1012.85 1013.76 1014.44 1014.89 1015.40 1015.86 1016.29 1016.58 1016.79 1017.01 1017.20 1017.39 1017.56 1017.68 1017.73 1017.83 1017.94 1018.09 1018.17 1018.17 1018.15 1018.15 1018.11 1018.09 1018.06 1018.00 1017.93 1017.80 1017.63 1017.48 1017.27 1017.05 1016.90 1016.78 1016.57 1016.71 1016.67 1016.20 1016.04 1015.98 1015.90 1015.63 1015.43
1013.03 1013.88 1014.58 1015.20 1015.74 1016.17 1016.54 1016.85 1017.04 1017.23 1017.42 1017.66 1017.86 1018.04 1018.09 1018.15 1018.26 1018.41 1018.42 1018.45 1018.44 1018.41 1018.39 1018.32 1018.31 1018.30 1018.19 1017.99 1017.82 1017.64 1017.37 1017.19 1017.02 1016.64 1016.98 1017.00 1016.77 1016.28 1016.31 1016.39 1016.24 1016.03 1015.84
1013.08 1013.99 1014.88 1015.53 1016.04 1016.45 1016.81 1017.10 1017.26 1017.52 1017.67 1017.96 1018.23 1018.43 1018.55 1018.55 1018.63 1018.76 1018.75 1018.76 1018.77 1018.70 1018.64 1018.53 1018.48 1018.45 1018.32 1018.19 1017.98 1017.79 1017.55 1017.32 1017.24 1016.96 1016.97 1017.30 1016.93 1016.55 1016.68 1016.68 1016.51 1016.36 1016.25
1013.47 1014.28 1014.99 1015.74 1016.29 1016.75 1017.14 1017.42 1017.67 1017.89 1018.04 1018.25 1018.42 1018.62 1018.79 1018.84 1018.93 1018.98 1019.10 1019.10 1019.01 1018.93 1018.79 1018.59 1018.49 1018.36 1018.32 1018.31 1018.06 1017.82 1017.63 1017.38 1017.39 1017.33 1017.45 1017.51 1016.99 1016.89 1016.99 1017.00 1016.88 1016.72 1016.57
1013.88 1014.59 1015.08 1015.60 1016.19 1016.80 1017.42 1017.77 1017.93 1018.16 1018.33 1018.47 1018.47 1018.53 1018.74 1018.88 1019.05 1019.25 1019.26 1019.25 1019.09 1018.98 1018.81 1018.60 1018.45 1018.34 1018.17 1018.06 1018.05 1017.82 1017.66 1017.48 1017.31 1017.75 1017.85 1017.70 1017.27 1017.17 1017.24 1017.25 1017.16 1017.10 1016.90
1014.11 1014.71 1015.00 1015.44 1016.05 1016.74 1017.12 1017.73 1017.90 1018.12 1018.27 1018.31 1018.32 1018.49 1018.71 1018.80 1018.96 1019.06 1019.17 1019.20 1019.05 1018.87 1018.80 1018.65 1018.46 1018.29 1018.22 1018.16 1018.08 1017.84 1017.85 1017.64 1017.63 1018.06 1018.20 1017.97 1017.64 1017.50 1017.51 1017.56 1017.49 1017.35 1017.17
1014.07 1014.75 1015.11 1015.60 1016.03 1016.64 1016.92 1017.39 1017.64 1017.87 1017.95 1018.06 1018.20 1018.34 1018.53 1018.81 1019.11 1019.18 1019.25 1019.25 1019.16 1018.95 1019.01 1018.74 1018.65 1018.49 1018.39 1018.32 1018.18 1018.04 1017.93 1017.85 1018.03 1018.29 1018.33 1018.26 1018.12 1018.00 1017.94 1017.84 1017.74 1017.48 1017.37
1014.21 1014.75 1015.14 1015.64 1016.15 1016.55 1016.81 1017.17 1017.52 1017.96 1018.12 1018.37 1018.51 1018.45 1018.72 1018.98 1019.11 1019.18 1019.33 1019.35 1019.45 1019.35 1019.29 1019.11 1019.00 1018.70 1018.53 1018.37 1018.22 1018.13 1018.03 1018.04 1018.16 1018.51 1018.51 1018.55 1018.56 1018.45 1018.33 1018.19 1018.00 1017.70 1017.54
1014.36 1014.69 1015.16 1015.80 1016.25 1016.50 1016.83 1017.15 1017.60 1018.06 1018.31 1018.47 1018.73 1018.68 1018.80 1019.20 1019.42 1019.42 1019.48 1019.56 1019.68 1019.57 1019.54 1019.45 1019.27 1019.03 1018.82 1018.57 1018.35 1018.28 1018.24 1018.18 1018.13 1018.48 1018.59 1018.57 1018.70 1018.71 1018.66 1018.55 1018.38 1018.18 1017.94
1014.24 1014.39 1015.22 1015.85 1016.16 1016.46 1016.77 1017.20 1017.68 1018.13 1018.38 1018.68 1019.04 1019.08 1019.05 1019.44 1019.67 1019.66 1019.75 1019.82 1019.86 1019.80 1019.71 1019.64 1019.56 1019.42 1019.16 1018.94 1018.77 1018.49 1018.44 1018.34 1018.25 1018.28 1018.64 1018.75 1018.71 1018.77 1018.72 1018.78 1018.74 1018.57 1018.32
1014.08 1014.49 1015.34 1015.83 1016.19 1016.59 1017.04 1017.36 1017.81 1018.11 1018.39 1018.85 1019.20 1019.16 1019.21 1019.57 1019.81 1019.81 1019.91 1020.07 1020.01 1019.88 1019.80 1019.77 1019.65 1019.52 1019.50 1019.21 1019.24 1018.86 1018.73 1018.59 1018.52 1018.49 1018.43 1018.67 1018.81 1018.90 1018.98 1018.88 1018.84 1018.77 1018.66
1013.83 1014.38 1015.30 1015.71 1016.36 1016.72 1017.23 1017.50 1017.88 1018.16 1018.50 1018.93 1019.22 1019.31 1019.36 1019.67 1019.90 1020.01 1020.06 1020.14 1020.05 1020.05 1020.01 1019.99 1020.05 1020.01 1019.91 1019.75 1019.57 1019.22 1018.91 1018.75 1018.58 1018.59 1018.53 1018.55 1018.67 1018.82 1019.01 1018.99 1018.85 1018.80 1018.73
1013.43 1014.38 1015.18 1015.59 1016.21 1016.73 1017.21 1017.62 1018.02 1018.18 1018.58 1019.03 1019.30 1019.52 1019.62 1019.82 1020.08 1020.19 1020.24 1020.22 1020.12 1020.16 1020.29 1020.34 1020.38 1020.27 1020.26 1020.05 1019.72 1019.26 1018.99 1019.02 1018.80 1018.52 1018.70 1018.68 1018.62 1018.80 1018.88 1018.91 1018.81 1018.66 1018.65
1013.19 1014.25 1015.25 1015.79 1016.39 1016.92 1017.26 1017.82 1018.33 1018.71 1018.91 1019.08 1019.30 1019.60 1019.92 1019.98 1020.21 1020.29 1020.40 1020.42 1020.33 1020.51 1020.66 1020.58 1020.69 1020.54 1020.37 1020.29 1019.87 1019.42 1019.04 1018.83 1018.76 1018.79 1018.68 1018.54 1018.57 1018.57 1018.77 1018.74 1018.74 1018.63 1018.39
1013.61 1014.54 1015.56 1016.11 1016.72 1017.15 1017.83 1018.27 1018.75 1019.10 1019.18 1019.30 1019.40 1019.69 1020.06 1020.17 1020.30 1020.29 1020.53 1020.66 1020.69 1020.84 1020.90 1020.96 1020.92 1020.90 1020.86 1020.44 1020.26 1019.84 1019.15 1018.92 1019.02 1018.89 1018.67 1018.63 1018.61 1018.49 1018.44 1018.43 1018.43 1018.40 1018.29
1014.01 1015.15 1015.92 1016.79 1017.13 1017.59 1018.25 1018.54 1018.80 1019.31 1019.22 1018.97 1019.38 1019.89 1020.35 1020.48 1020.56 1020.41 1020.65 1020.90 1020.97 1021.12 1021.07 1021.28 1021.36 1021.48 1021.22 1020.96 1021.12 1020.91 1020.39 1019.85 1019.54 1019.13 1018.90 1018.89 1018.81 1018.61 1018.58 1018.31 1018.21 1018.12 1018.05
1014.38 1015.09 1016.15 1016.99 1017.50 1018.03 1018.45 1018.82 1018.67 1019.93 1019.49 1019.75 1019.54 1019.92 1020.55 1020.70 1020.78 1020.59 1020.82 1020.89 1021.18 1021.33 1021.37 1021.47 1021.54 1021.60 1021.75 1021.37 1021.13 1021.33 1021.38 1021.37 1020.69 1019.56 1019.28 1019.20 1018.98 1018.77 1018.47 1018.25 1018.04 1017.87 1017.81
1014.18 1015.06 1016.10 1016.93 1018.05 1017.29 1019.05 1018.71 1019.33 1019.80 1019.69 1019.93 1019.84 1020.39 1020.57 1020.60 1021.04 1020.82 1021.01 1020.92 1021.38 1021.52 1021.67 1021.60 1021.49 1021.67 1021.80 1021.89 1021.54 1021.37 1021.49 1021.65 1021.54 1021.07 1019.96 1019.55 1019.24 1018.98 1018.87 1018.46 1018.16 1017.87 1017.67
1014.04 1014.78 1015.95 1016.66 1017.56 1017.25 1017.76 1019.05 1019.73 1019.31 1019.31 1019.96 1020.31 1020.95 1020.85 1020.87 1020.97 1021.19 1021.21 1021.25 1021.55 1021.78 1021.83 1021.87 1021.86 1021.83 1021.94 1022.00 1022.00 1021.82 1021.54 1021.41 1021.32 1021.69 1021.05 1020.11 1019.75 1019.31 1018.90 1018.60 1018.14 1017.68 1017.44
1013.96 1014.68 1015.78 1015.93 1016.76 1017.62 1018.57 1018.95 1018.93 1018.95 1019.23 1020.05 1020.63 1021.10 1021.05 1020.90 1021.32 1021.38 1021.27 1021.61 1021.69 1021.94 1022.01 1021.86 1021.93 1021.83 1021.87 1021.90 1021.80 1021.80 1021.83 1021.77 1021.65 1021.65 1021.34 1020.74 1020.33 1019.26 1018.95 1018.48 1018.21 1017.58 1017.16
Thickness
5750 5749 5745 5744 5742 5740 5739 5738 5738 5738 5738 5738 5738 5736 5735 5734 5733 5732 5731 5731 5731 5731 5731 5730 5730 5729 5728 5727 5727 5726 5725 5724 5723 5723 5723 5723 5723 5722 5721 5719 5717 5715 5715
5754 5748 5744 5742 5741 5739 5738 5737 5736 5736 5736 5735 5735 5734 5733 5732 5731 5730 5730 5730 5729 5729 5729 5729 5728 5727 5726 5725 5725 5724 5723 5722 5722 5722 5723 5723 5722 5721 5718 5715 5712 5711 5710
5753 5746 5743 5741 5739 5737 5737 5735 5734 5734 5733 5732 5732 5731 5731 5730 5729 5728 5727 5727 5727 5727 5728 5727 5726 5725 5724 5723 5723 5723 5722 5721 5721 5721 5721 5722 5720 5715 5712 5710 5708 5707 5707
5751 5746 5741 5739 5737 5735 5735 5733 5732 5732 5731 5730 5729 5729 5728 5727 5726 5726 5725 5725 5725 5725 5724 5725 5724 5723 5722 5721 5721 5721 5720 5720 5720 5719 5718 5717 5715 5710 5708 5706 5705 5704 5702
5749 5745 5740 5737 5736 5734 5732 5731 5730 5729 5729 5728 5727 5726 5725 5725 5724 5723 5723 5723 5723 5722 5722 5721 5720 5720 5720 5719 5719 5719 5718 5718 5718 5717 5715 5712 5708 5705 5702 5701 5699 5699 5697
5750 5742 5737 5734 5733 5731 5729 5728 5727 5726 5725 5724 5723 5723 5722 5722 5722 5721 5721 5720 5720 5720 5719 5718 5717 5716 5716 5715 5715 5716 5716 5716 5716 5713 5710 5705 5702 5699 5697 5695 5695 5695 5693
5744 5738 5735 5732 5729 5727 5725 5724 5724 5722 5721 5720 5719 5719 5719 5719 5719 5718 5718 5717 5717 5717 5716 5715 5714 5713 5712 5711 5711 5711 5712 5711 5710 5708 5704 5700 5696 5695 5693 5691 5689 5689 5687
5741 5735 5732 5728 5725 5724 5722 5720 5720 5719 5718 5716 5715 5714 5715 5715 5715 5714 5714 5714 5713 5713 5713 5712 5710 5709 5708 5708 5709 5708 5709 5708 5706 5705 5698 5694 5691 5691 5688 5685 5684 5682 5681
5737 5732 5727 5724 5722 5719 5718 5716 5716 5714 5714 5713 5712 5711 5710 5711 5710 5709 5710 5709 5709 5709 5709 5709 5707 5705 5705 5705 5705 5705 5705 5705 5703 5700 5695 5689 5687 5686 5682 5680 5679 5677 5675
5732 5727 5724 5720 5718 5716 5714 5712 5711 5710 5710 5709 5709 5708 5707 5707 5706 5706 5705 5705 5705 5705 5706 5706 5705 5704 5702 5701 5702 5702 5701 5701 5698 5694 5690 5685 5684 5682 5679 5676 5674 5672 5670
5724 5722 5720 5718 5717 5714 5710 5708 5708 5707 5707 5707 5707 5708 5706 5705 5704 5703 5702 5702 5702 5702 5703 5704 5703 5702 5701 5701 5699 5699 5698 5697 5695 5689 5684 5681 5680 5678 5675 5672 5670 5667 5665
5717 5717 5720 5717 5715 5711 5709 5707 5707 5705 5706 5706 5706 5706 5704 5704 5702 5701 5701 5699 5700 5700 5700 5700 5700 5699 5699 5698 5696 5696 5694 5693 5690 5684 5678 5675 5674 5673 5670 5667 5665 5663 5661
5714 5713 5714 5714 5711 5709 5709 5707 5705 5704 5705 5704 5703 5703 5702 5701 5699 5698 5697 5695 5695 5695 5695 5695 5695 5695 5695 5693 5693 5692 5690 5688 5684 5678 5674 5670 5668 5666 5663 5661 5660 5659 5656
5710 5710 5711 5709 5707 5706 5706 5705 5703 5701 5700 5699 5698 5698 5697 5696 5695 5694 5692 5690 5689 5689 5690 5690 5690 5691 5690 5689 5689 5688 5686 5684 5681 5673 5670 5666 5662 5660 5658 5656 5654 5654 5652
5703 5706 5705 5704 5702 5702 5702 5701 5699 5696 5695 5695 5694 5693 5693 5690 5688 5688 5687 5685 5684 5684 5684 5684 5684 5684 5684 5684 5684 5683 5681 5679 5677 5671 5668 5664 5659 5655 5652 5650 5648 5646 5645
5699 5703 5700 5698 5698 5698 5698 5697 5694 5691 5691 5690 5687 5687 5686 5684 5682 5681 5680 5679 5679 5678 5678 5677 5677 5677 5677 5677 5676 5676 5675 5673 5671 5670 5664 5659 5656 5652 5648 5645 5642 5640 5638
5695 5697 5693 5693 5692 5693 5692 5690 5688 5687 5686 5684 5682 5681 5681 5678 5676 5676 5675 5674 5673 5673 5672 5671 5671 5671 5670 5670 5669 5669 5668 5667 5665 5662 5660 5656 5651 5647 5642 5640 5637 5635 5633
5691 5692 5688 5690 5686 5687 5685 5684 5682 5681 5680 5678 5676 5676 5675 5672 5670 5670 5670 5668 5668 5667 5666 5666 5665 5663 5662 5661 5661 5662 5662 5660 5659 5656 5653 5651 5648 5644 5638 5634 5633 5630 5628
5688 5684 5681 5683 5682 5681 5679 5677 5675 5675 5674 5672 5670 5668 5666 5665 5664 5664 5663 5662 5662 5661 5659 5658 5657 5656 5654 5654 5655 5656 5656 5653 5652 5651 5647 5645 5642 5638 5634 5629 5627 5626 5625
5683 5681 5676 5675 5674 5673 5672 5669 5667 5666 5666 5665 5665 5662 5659 5659 5657 5657 5655 5654 5654 5653 5651 5650 5648 5648 5648 5646 5649 5650 5649 5649 5646 5644 5642 5640 5637 5633 5628 5625 5623 5622 5621
5675 5671 5666 5666 5665 5664 5659 5658 5655 5654 5656 5657 5658 5654 5651 5651 5649 5650 5648 5646 5645 5643 5642 5641 5639 5638 5637 5639 5638 5638 5643 5641 5637 5636 5635 5632 5630 5627 5624 5621 5618 5617 5616
5663 5659 5658 5654 5655 5653 5650 5648 5646 5642 5646 5651 5650 5645 5641 5640 5640 5642 5641 5637 5635 5634 5633 5630 5628 5627 5627 5627 5624 5623 5623 5627 5626 5627 5627 5625 5622 5619 5616 5615 5613 5612 5611
5656 5654 5650 5647 5645 5643 5637 5636 5638 5623 5634 5635 5638 5635 5631 5630 5631 5633 5631 5630 5626 5624 5623 5621 5619 5618 5614 5616 5616 5611 5605 5602 5607 5616 5616 5614 5612 5611 5610 5609 5608 5607 5606
5652 5648 5644 5640 5635 5643 5623 5627 5625 5621 5624 5623 5625 5622 5621 5620 5619 5623 5622 5622 5617 5615 5613 5612 5611 5608 5605 5602 5603 5603 5600 5596 5592 5592 5599 5602 5602 5602 5601 5601 5601 5601 5601
5647 5644 5638 5634 5632 5634 5625 5617 5613 5618 5621 5615 5611 5607 5609 5612 5612 5611 5611 5611 5608 5605 5603 5601 5599 5597 5594 5592 5590 5589 5589 5587 5585 5580 5585 5586 5589 5590 5592 5592 5594 5595 5594
5633 5634 5627 5629 5626 5619 5612 5610 5612 5615 5615 5605 5604 5600 5601 5604 5602 5601 5602 5599 5599 5594 5592 5591 5588 5588 5585 5582 5581 5579 5576 5574 5572 5569 5570 5574 5575 5581 5582 5584 5585 5587 5587